Volver al catálogo

YZ-1 R/B

ActivoMEO
NORAD 43248·ROCKET BODY·🇨🇳 China

Lanzado Mar 29, 2018 desde Xichang Satellite Launch Center

Loading…

Próximos Pases (próximas 24 horas)

TLE

ActualizadoSource: Space-Track

Época: Sep 13, 2026, 10:27 UTC

1 43248U 18029D   26256.43545953 -.00000062  00000-0  00000-0 0  9999
2 43248  54.5866 307.8881 0101146  44.1367 316.7355  1.77724232 54914

Sigue YZ-1 R/B en tiempo real con AllMySat

Download on the App Store